Weather History for Barnwell, SC

Change the Weather History Date:

Wednesday, September 18, 2013

  Actual Average (KOGB) Record (KOGB)
Temperature  
Mean Temperature 70 °F 74 °F  
Max Temperature 80 °F 85 °F 99 °F (1980)
Min Temperature 60 °F 64 °F 52 °F (2001)
Degree Days  
Heating Degree Days 0 0  
Month to date heating degree days 0  
Since 1 July heating degree days 0  
Cooling Degree Days 5 10  
Month to date cooling degree days 207  
Year to date cooling degree days 1900  
Growing Degree Days 20 (Base 50)    
Moisture  
Dew Point 58 °F    
Average Humidity 69    
Maximum Humidity 94    
Minimum Humidity 44    
Precipitation  
Precipitation 0.00 in 0.12 in 1.66 in (1998)
Month to date precipitation 2.30  
Year to date precipitation 35.61  
Sea Level Pressure  
Sea Level Pressure 30.20 in    
Wind  
Wind Speed 5 mph (NE)    
Max Wind Speed 10 mph    
Max Gust Speed -    
Visibility 10 miles    
Events      
T = Trace of Precipitation, MM = Missing Value Source: NWS Daily Summary

Daily Weather History Graph

Daily Weather History Graph

Search for Another Location

Airport:

Trip Planner

Search our weather history database for the weather conditions in past years. The results will help you decide how hot, cold, wet, or windy it might be!

Date:

Astronomy

Sep. 18, 2013 Rise Set
Actual Time 7:11 AM EDT 7:27 PM EDT
Civil Twilight 6:46 AM EDT 7:52 PM EDT
Nautical Twilight 6:17 AM EDT 8:21 PM EDT
Astronomical Twilight 5:47 AM EDT 8:50 PM EDT
Moon 6:50 PM EDT (9/18) 6:12 AM EDT (9/18)
Length of Visible Light 13h 05m
Length of Day
12h 16m
Waxing Gibbous, 99% of the Moon is Illuminated
Sep 18
Waxing Gibbous
Sep 19
Full
Sep 26
Last Quarter
Oct 4
New
Oct 11
First Quarter

Hourly Weather History & Observations

Time (EDT) Temp. Heat Index Dew Point Humidity Pressure Visibility Wind Dir Wind Speed Gust Speed Precip Events Conditions
12:15 AM 66.2 °F - 60.8 °F 83% 30.21 in 10.0 mi Calm Calm - N/A   Clear
12:35 AM 66.2 °F - 59.0 °F 78% 30.21 in 10.0 mi ENE 3.5 mph - N/A   Clear
12:55 AM 66.2 °F - 59.0 °F 78% 30.21 in 10.0 mi NE 3.5 mph - N/A   Clear
1:15 AM 64.4 °F - 59.0 °F 83% 30.21 in 10.0 mi NE 3.5 mph - N/A   Clear
1:35 AM 64.4 °F - 57.2 °F 77% 30.21 in 10.0 mi NE 4.6 mph - N/A   Clear
1:55 AM 64.4 °F - 57.2 °F 77% 30.21 in 10.0 mi NE 6.9 mph - N/A   Clear
2:15 AM 64.4 °F - 57.2 °F 77% 30.21 in 10.0 mi ENE 8.1 mph - N/A   Clear
2:35 AM 64.4 °F - 57.2 °F 77% 30.21 in 10.0 mi ENE 5.8 mph - N/A   Clear
2:55 AM 64.4 °F - 57.2 °F 77% 30.20 in 10.0 mi ENE 5.8 mph - N/A   Clear
3:15 AM 64.4 °F - 57.2 °F 77% 30.20 in 10.0 mi ENE 6.9 mph - N/A   Clear
3:35 AM 64.4 °F - 57.2 °F 77% 30.20 in 10.0 mi ENE 5.8 mph - N/A   Clear
3:55 AM 64.4 °F - 57.2 °F 77% 30.20 in 10.0 mi NE 6.9 mph - N/A   Clear
4:15 AM 64.4 °F - 57.2 °F 77% 30.19 in 10.0 mi ENE 8.1 mph - N/A   Clear
4:35 AM 64.4 °F - 57.2 °F 77% 30.20 in 10.0 mi ENE 6.9 mph - N/A   Clear
4:55 AM 62.6 °F - 57.2 °F 82% 30.20 in 10.0 mi ENE 5.8 mph - N/A   Clear
5:15 AM 62.6 °F - 57.2 °F 82% 30.19 in 10.0 mi ENE 9.2 mph - N/A   Clear
5:35 AM 62.6 °F - 57.2 °F 82% 30.20 in 10.0 mi ENE 6.9 mph - N/A   Clear
5:55 AM 62.6 °F - 57.2 °F 82% 30.20 in 10.0 mi ENE 8.1 mph - N/A   Clear
6:15 AM 62.6 °F - 57.2 °F 82% 30.21 in 10.0 mi ENE 5.8 mph - N/A   Clear
6:35 AM 62.6 °F - 57.2 °F 82% 30.22 in 10.0 mi NE 5.8 mph - N/A   Clear
6:55 AM 60.8 °F - 57.2 °F 88% 30.22 in 10.0 mi NE 6.9 mph - N/A   Clear
7:15 AM 60.8 °F - 57.2 °F 88% 30.23 in 10.0 mi ENE 6.9 mph - N/A   Partly Cloudy
7:35 AM 60.8 °F - 55.4 °F 82% 30.23 in 10.0 mi ENE 5.8 mph - N/A   Clear
7:55 AM 60.8 °F - 55.4 °F 82% 30.23 in 10.0 mi NE 6.9 mph - N/A   Clear
8:15 AM 62.6 °F - 55.4 °F 77% 30.24 in 10.0 mi ENE 6.9 mph - N/A   Clear
8:35 AM 62.6 °F - 55.4 °F 77% 30.24 in 10.0 mi NE 8.1 mph - N/A   Clear
8:55 AM 64.4 °F - 55.4 °F 73% 30.24 in 10.0 mi ENE 9.2 mph - N/A   Clear
9:15 AM 64.4 °F - 55.4 °F 73% 30.25 in 10.0 mi NE 6.9 mph - N/A   Partly Cloudy
9:35 AM 66.2 °F - 55.4 °F 68% 30.25 in 10.0 mi NE 8.1 mph - N/A   Partly Cloudy
9:55 AM 66.2 °F - 53.6 °F 64% 30.26 in 10.0 mi ENE 6.9 mph - N/A   Scattered Clouds
10:15 AM 68.0 °F - 55.4 °F 64% 30.26 in 10.0 mi East 6.9 mph - N/A   Partly Cloudy
10:35 AM 69.8 °F - 55.4 °F 60% 30.26 in 10.0 mi NE 8.1 mph - N/A   Partly Cloudy
10:55 AM 69.8 °F - 55.4 °F 60% 30.26 in 10.0 mi NNE 9.2 mph - N/A   Partly Cloudy
11:15 AM 69.8 °F - 55.4 °F 60% 30.26 in 10.0 mi ENE 8.1 mph - N/A   Mostly Cloudy
11:35 AM 69.8 °F - 55.4 °F 60% 30.26 in 10.0 mi NE 8.1 mph - N/A   Mostly Cloudy
11:55 AM 71.6 °F - 55.4 °F 57% 30.25 in 10.0 mi NE 8.1 mph - N/A   Scattered Clouds
12:15 PM 73.4 °F - 57.2 °F 57% 30.25 in 10.0 mi ENE 8.1 mph - N/A   Scattered Clouds
12:35 PM 73.4 °F - 57.2 °F 57% 30.25 in 10.0 mi ENE 6.9 mph - N/A   Partly Cloudy
12:55 PM 75.2 °F - 57.2 °F 53% 30.24 in 10.0 mi NNE 8.1 mph - N/A   Clear
1:15 PM 75.2 °F - 57.2 °F 53% 30.24 in 10.0 mi NE 5.8 mph - N/A   Clear
1:35 PM 75.2 °F - 57.2 °F 53% 30.22 in 10.0 mi ENE 8.1 mph - N/A   Clear
1:55 PM 77.0 °F - 57.2 °F 50% 30.21 in 10.0 mi NNE 10.4 mph - N/A   Clear
2:15 PM 78.8 °F - 57.2 °F 47% 30.21 in 10.0 mi NE 8.1 mph - N/A   Clear
2:35 PM 78.8 °F - 57.2 °F 47% 30.20 in 10.0 mi ENE 9.2 mph - N/A   Clear
2:55 PM 80.6 °F 80.8 °F 57.2 °F 45% 30.19 in 10.0 mi North 6.9 mph - N/A   Clear
3:15 PM 78.8 °F - 57.2 °F 47% 30.19 in 10.0 mi NNE 8.1 mph - N/A   Clear
3:35 PM 80.6 °F 80.8 °F 57.2 °F 45% 30.18 in 10.0 mi NNE 9.2 mph - N/A   Clear
3:55 PM 80.6 °F 80.8 °F 57.2 °F 45% 30.17 in 10.0 mi NE 8.1 mph - N/A   Partly Cloudy
4:15 PM 78.8 °F - 57.2 °F 47% 30.17 in 10.0 mi ENE 8.1 mph - N/A   Scattered Clouds
4:35 PM 78.8 °F - 57.2 °F 47% 30.16 in 10.0 mi ENE 6.9 mph - N/A   Partly Cloudy
4:55 PM 78.8 °F - 55.4 °F 44% 30.16 in 10.0 mi East 5.8 mph - N/A   Clear
5:15 PM 80.6 °F 80.8 °F 57.2 °F 45% 30.16 in 10.0 mi North 8.1 mph - N/A   Clear
5:35 PM 78.8 °F - 57.2 °F 47% 30.16 in 10.0 mi NNE 6.9 mph - N/A   Clear
5:55 PM 78.8 °F - 57.2 °F 47% 30.16 in 10.0 mi NE 6.9 mph - N/A   Clear
6:15 PM 78.8 °F - 57.2 °F 47% 30.15 in 10.0 mi NE 8.1 mph - N/A   Clear
6:35 PM 77.0 °F - 57.2 °F 50% 30.15 in 10.0 mi ENE 5.8 mph - N/A   Clear
6:55 PM 75.2 °F - 57.2 °F 53% 30.15 in 10.0 mi NE 3.5 mph - N/A   Clear
7:15 PM 75.2 °F - 59.0 °F 57% 30.16 in 10.0 mi ENE 3.5 mph - N/A   Clear
7:35 PM 73.4 °F - 59.0 °F 61% 30.15 in 10.0 mi Calm Calm - N/A   Clear
7:55 PM 71.6 °F - 60.8 °F 69% 30.16 in 10.0 mi Calm Calm - N/A   Clear
8:15 PM 68.0 °F - 60.8 °F 78% 30.16 in 10.0 mi Calm Calm - N/A   Clear
8:35 PM 69.8 °F - 60.8 °F 73% 30.17 in 10.0 mi Calm Calm - N/A   Clear
8:55 PM 68.0 °F - 59.0 °F 73% 30.17 in 10.0 mi Calm Calm - N/A   Clear
9:15 PM 66.2 °F - 60.8 °F 83% 30.17 in 10.0 mi Calm Calm - N/A   Clear
9:35 PM 66.2 °F - 60.8 °F 83% 30.18 in 10.0 mi Calm Calm - N/A   Clear
9:55 PM 64.4 °F - 60.8 °F 88% 30.18 in 10.0 mi Calm Calm - N/A   Clear
10:15 PM 64.4 °F - 60.8 °F 88% 30.19 in 10.0 mi Calm Calm - N/A   Clear
10:35 PM 64.4 °F - 60.8 °F 88% 30.19 in 10.0 mi Calm Calm - N/A   Clear
10:55 PM 62.6 °F - 60.8 °F 94% 30.19 in 10.0 mi Calm Calm - N/A   Clear
11:15 PM 62.6 °F - 59.0 °F 88% 30.19 in 10.0 mi Calm Calm - N/A   Clear
11:35 PM 60.8 °F - 59.0 °F 94% 30.19 in 10.0 mi Calm Calm - N/A   Clear
11:55 PM 60.8 °F - 59.0 °F 94% 30.19 in 10.0 mi Calm Calm - N/A   Clear